Regional Weather Roundup
Issued by NWS

Home | Current Version | Previous Version | Text Only | Print | Product List | Glossary On
Versions: 1 2 3 4 5 6 7 8 9 10 11 12 13 14 15 16 17 18 19 20 21 22 23 24 25 26 27 28 29 30 31 32 33 34 35 36 37 38 39 40 41 42 43 44 45 46 47 48 49 50
000
ASUS44 KJAN 031610
RWRMS

MISSISSIPPI HOURLY WEATHER ROUNDUP
NATIONAL WEATHER SERVICE JACKSON MS
1100 AM CDT MON AUG 03 2015

NOTE: "FAIR: INDICATES FEW OR NO CLOUDS BELOW 12,000 FEET WITH NO
SIGNIFICANT WEATHER AND/OR OBSTRUCTIONS TO VISIBILITY.

MSZ001>002-007>008-010>013-018>021-025>028-034>036-031700-
NORTHWEST MISSISSIPPI

CITY           SKY/WX    TMP DP  RH WIND       PRES   REMARKS
CLARKSDALE     FAIR      90  70  51 E3        29.97S HX  95
CLEVELAND      FAIR      89  73  58 CALM      29.95S HX  97
GREENWOOD      SUNNY     91  66  43 NE5       29.96R HX  93
GREENVILLE     SUNNY     91  70  49 E3        29.94S HX  96
OLIVE BRANCH   MOSUNNY   90  66  45 S3        29.97R HX  92
OXFORD         FAIR      86  64  48 W3        29.99S
TUNICA         SUNNY     90  70  51 CALM      29.97R HX  95
$$

MSZ003>006-009-014>017-022>024-029>033-037>039-031700-
NORTHEAST MISSISSIPPI

CITY           SKY/WX    TMP DP  RH WIND       PRES   REMARKS
COLUMBUS AFB   SUNNY     90  63  40 SE5       29.96S HX  91
CORINTH        FAIR      88  68  51 CALM      29.96S HX  91
GOLDN TRIANGLE SUNNY     90  55  31 E7        29.96S
STARKVILLE     FAIR      88  63  42 SE5       29.97S
TUPELO         SUNNY     90  64  42 CALM      29.97R HX  91
$$

MSZ040-058-031700-
CENTRAL MISSISSIPPI

CITY           SKY/WX    TMP DP  RH WIND       PRES   REMARKS
JACKSON INTL   SUNNY     94  62  34 N6        29.94S HX  94
JACKSON HAWKNS SUNNY     92  63  38 E5        29.95S HX  93
MERIDIAN KEY   SUNNY     91  58  32 VRB6      29.95S HX  90
MERIDIAN NAS   MOSUNNY   90  62  39 N5        29.96S HX  90
VICKSBURG      SUNNY     91  68  46 E6        29.93F HX  95
$$

MSZ059>079-031700-
SOUTH MISSISSIPPI

CITY           SKY/WX    TMP DP  RH WIND       PRES   REMARKS
BROOKHAVEN     FAIR      90  70  51 CALM      29.96S HX  95
HATTIESBURG    SUNNY     92  66  42 MISG      29.94S HX  94
MCCOMB         SUNNY     92  69  47 NE6       29.94S HX  97
NATCHEZ        SUNNY     90  73  58 CALM      29.94S HX  98
PINE BELT      SUNNY     91  57  31 NE6       29.96S HX  90
$$

MSZ080>082-031700-
COASTAL MISSISSIPPI

CITY           SKY/WX    TMP DP  RH WIND       PRES   REMARKS
BAY ST LOUIS   SUNNY     90  64  43 VRB5      29.92S HX  91
BILOXI         MOSUNNY   90  72  54 NE5       29.92S HX  97
PASCAGOULA     SUNNY     93  68  43 NE8       29.92S HX  97
GULFPORT       SUNNY     92  70  48 NE8       29.91S HX  97
$$



USA.gov is the U.S. government's official web portal to all federal, state and local government web resources and services.